Вернуться в каталог

STARLINK-3879

АктивенСвязьVLEO
NORAD 52473·PAYLOAD·🇺🇸 United States

Запущен May 6, 2022 с Cape Canaveral Space Force Station

Loading…

Ближайшие Пролёты (ближайшие 24 часа)

TLE

СвежийSource: CelesTrak SupGP

Эпоха: Sep 15, 2026, 01:29 UTC

1 52473C 22049Y   26258.06229167  .00016827  00000+0  51058-3 0  2587
2 52473  53.1579 279.4054 0001279  84.1814  30.5351 15.33542711    19

Отслеживайте STARLINK-3879 в реальном времени с AllMySat

Download on the App Store